Location: Kerb�bon
(47.7970°N, 3.3487°W)
Time: 09:52:02
(UTC+00:00)

NOSS 3-4 (C) - Pass Details

Date: 12 May 2021
Orbit: 873 x 1339 km, 63.4° (Epoch: 06 May)

Event Time Altitude Azimuth Distance (km) Brightness Sun altitude
Rises 22:15:01 0° 317° (NW) 3,826 8.1 -19.0°
Reaches altitude 10° 22:17:35 10° 313° (NW) 2,934 7.1 -19.2°
Maximum altitude 22:24:25 56° 238° (WSW) 1,373 4.2 -19.7°
Enters shadow 22:28:16 29° 174° (S) 2,057 4.6 -20.0°
